Météo par heure à Almazovo

Ce jour, 15 Mai, Samedi

Heure Température Précipitation Vent Pression Humidité
00:00 +19°C° 0 mm 5 m/s 750 mmHg 70%
01:00 +19°C° 0 mm 5 m/s 750 mmHg 68%
02:00 +19°C° 0 mm 5 m/s 750 mmHg 66%
03:00 +19°C° 0 mm 5 m/s 750 mmHg 63%
04:00 +17°C° 0 mm 5 m/s 750 mmHg 63%
05:00 +17°C° 0 mm 5 m/s 751 mmHg 64%
06:00 +16°C° 0 mm 5 m/s 751 mmHg 65%
07:00 +19°C° 0 mm 5 m/s 751 mmHg 61%
08:00 +21°C° 0 mm 6 m/s 751 mmHg 57%
09:00 +22°C° 0 mm 6 m/s 751 mmHg 52%
10:00 +24°C° 0 mm 6 m/s 751 mmHg 50%
11:00 +26°C° 0 mm 6 m/s 751 mmHg 47%
12:00 +27°C° 0 mm 7 m/s 751 mmHg 44%
13:00 +27°C° 0 mm 6 m/s 751 mmHg 46%
14:00 +27°C° 0 mm 6 m/s 751 mmHg 48%
15:00 +28°C° 0 mm 6 m/s 751 mmHg 50%
16:00 +27°C° 0 mm 5 m/s 751 mmHg 54%
17:00 +27°C° 0 mm 4 m/s 751 mmHg 58%
18:00 +26°C° 0 mm 3 m/s 751 mmHg 63%
19:00 +24°C° 0 mm 2 m/s 751 mmHg 67%
20:00 +23°C° 0 mm 2 m/s 751 mmHg 72%
21:00 +21°C° 0 mm 1 m/s 751 mmHg 77%
22:00 +20°C° 0 mm 1 m/s 751 mmHg 78%
23:00 +20°C° 0 mm 1 m/s 751 mmHg 80%

Demain, 16 Mai, Dimanche

Heure Température Précipitation Vent Pression Humidité
00:00 +19°C° 0 mm 1 m/s 751 mmHg 82%
01:00 +19°C° 0 mm 1 m/s 751 mmHg 83%
02:00 +19°C° 0 mm 1 m/s 751 mmHg 85%
03:00 +18°C° 0 mm 1 m/s 751 mmHg 87%
04:00 +19°C° 0 mm 1 m/s 751 mmHg 86%
05:00 +19°C° 0 mm 1 m/s 751 mmHg 84%
06:00 +18°C° 0 mm 2 m/s 751 mmHg 83%
07:00 +20°C° 0 mm 2 m/s 752 mmHg 73%
08:00 +21°C° 0 mm 3 m/s 752 mmHg 64%
09:00 +23°C° 0 mm 4 m/s 752 mmHg 54%
10:00 +25°C° 0 mm 4 m/s 752 mmHg 50%
11:00 +26°C° 0 mm 5 m/s 752 mmHg 46%
12:00 +27°C° 0 mm 5 m/s 752 mmHg 42%
13:00 +27°C° 0 mm 5 m/s 752 mmHg 42%
14:00 +27°C° 0 mm 5 m/s 752 mmHg 42%
15:00 +28°C° 0 mm 4 m/s 752 mmHg 43%
16:00 +27°C° 0 mm 3 m/s 751 mmHg 48%
17:00 +27°C° 0 mm 3 m/s 751 mmHg 52%
18:00 +26°C° 0 mm 2 m/s 751 mmHg 57%
19:00 +25°C° 0 mm 2 m/s 751 mmHg 58%
20:00 +23°C° 0 mm 2 m/s 751 mmHg 58%
21:00 +20°C° 0 mm 2 m/s 751 mmHg 59%
22:00 +20°C° 0 mm 3 m/s 751 mmHg 61%
23:00 +19°C° 0 mm 3 m/s 751 mmHg 63%

Après-demain, 17 Mai, Lundi

Heure Température Précipitation Vent Pression Humidité
00:00 +19°C° 0 mm 3 m/s 751 mmHg 65%
01:00 +18°C° 0 mm 3 m/s 751 mmHg 63%
02:00 +18°C° 0 mm 3 m/s 751 mmHg 61%
03:00 +18°C° 0 mm 3 m/s 751 mmHg 59%
04:00 +17°C° 0 mm 3 m/s 751 mmHg 60%
05:00 +17°C° 0 mm 3 m/s 751 mmHg 62%
06:00 +17°C° 0 mm 3 m/s 751 mmHg 63%
07:00 +19°C° 0 mm 4 m/s 751 mmHg 59%
08:00 +21°C° 0 mm 4 m/s 751 mmHg 55%
09:00 +23°C° 0 mm 5 m/s 751 mmHg 52%
10:00 +26°C° 0 mm 5 m/s 751 mmHg 48%
11:00 +27°C° 0 mm 6 m/s 751 mmHg 45%
12:00 +29°C° 0 mm 6 m/s 751 mmHg 41%
13:00 +29°C° 0 mm 6 m/s 751 mmHg 43%
14:00 +29°C° 0 mm 6 m/s 751 mmHg 44%
15:00 +29°C° 0 mm 6 m/s 750 mmHg 46%
16:00 +28°C° 0 mm 6 m/s 750 mmHg 50%
17:00 +27°C° 0 mm 5 m/s 750 mmHg 55%
18:00 +26°C° 0 mm 4 m/s 750 mmHg 59%
19:00 +25°C° 0 mm 4 m/s 750 mmHg 58%
20:00 +22°C° 0 mm 5 m/s 750 mmHg 56%
21:00 +21°C° 0 mm 5 m/s 750 mmHg 54%
22:00 +21°C° 0 mm 5 m/s 750 mmHg 51%
23:00 +20°C° 0 mm 6 m/s 750 mmHg 48%

18 Mai, Mardi

Heure Température Précipitation Vent Pression Humidité
00:00 +20°C° 0 mm 6 m/s 750 mmHg 45%
01:00 +19°C° 0 mm 5 m/s 749 mmHg 49%
02:00 +17°C° 0 mm 5 m/s 749 mmHg 52%
03:00 +17°C° 0 mm 4 m/s 749 mmHg 55%
04:00 +17°C° 0 mm 4 m/s 749 mmHg 58%
05:00 +17°C° 0 mm 4 m/s 749 mmHg 60%
06:00 +17°C° 0 mm 4 m/s 749 mmHg 63%
07:00 +19°C° 0 mm 4 m/s 749 mmHg 57%
08:00 +22°C° 0 mm 5 m/s 749 mmHg 51%
09:00 +25°C° 0 mm 5 m/s 749 mmHg 45%
10:00 +26°C° 0 mm 6 m/s 749 mmHg 43%
11:00 +27°C° 0 mm 6 m/s 749 mmHg 41%
12:00 +29°C° 0 mm 6 m/s 748 mmHg 39%
13:00 +29°C° 0 mm 6 m/s 748 mmHg 41%
14:00 +29°C° 0 mm 6 m/s 748 mmHg 42%
15:00 +30°C° 0 mm 6 m/s 748 mmHg 43%
16:00 +29°C° 0 mm 5 m/s 748 mmHg 48%
17:00 +28°C° 0 mm 4 m/s 747 mmHg 53%
18:00 +27°C° 0 mm 2 m/s 747 mmHg 58%
19:00 +25°C° 0 mm 2 m/s 747 mmHg 61%
20:00 +24°C° 0 mm 2 m/s 747 mmHg 63%
21:00 +22°C° 0 mm 1 m/s 747 mmHg 66%
22:00 +20°C° 0 mm 2 m/s 747 mmHg 69%
23:00 +19°C° 0 mm 2 m/s 747 mmHg 73%

19 Mai, Mercredi

Heure Température Précipitation Vent Pression Humidité
00:00 +18°C° 0 mm 3 m/s 747 mmHg 76%
01:00 +18°C° 0 mm 2 m/s 748 mmHg 80%
02:00 +18°C° 0 mm 2 m/s 748 mmHg 83%
03:00 +19°C° 0 mm 1 m/s 748 mmHg 86%
04:00 +18°C° 0 mm 2 m/s 748 mmHg 86%
05:00 +18°C° 0 mm 2 m/s 748 mmHg 85%
06:00 +18°C° 0 mm 2 m/s 748 mmHg 85%
07:00 +19°C° 0 mm 3 m/s 748 mmHg 80%
08:00 +20°C° 0 mm 4 m/s 748 mmHg 75%
09:00 +21°C° 0 mm 5 m/s 748 mmHg 71%
10:00 +22°C° 0 mm 5 m/s 748 mmHg 66%
11:00 +23°C° 0 mm 5 m/s 748 mmHg 61%
12:00 +24°C° 0 mm 6 m/s 748 mmHg 56%
13:00 +24°C° 0.4 mm 6 m/s 749 mmHg 57%
14:00 +24°C° 0.4 mm 6 m/s 749 mmHg 58%
15:00 +24°C° 0.4 mm 6 m/s 749 mmHg 59%
16:00 +22°C° 0.2 mm 5 m/s 749 mmHg 64%
17:00 +21°C° 0.2 mm 5 m/s 749 mmHg 69%
18:00 +20°C° 0.2 mm 4 m/s 749 mmHg 74%
19:00 +19°C° 0 mm 3 m/s 749 mmHg 78%
20:00 +18°C° 0 mm 3 m/s 749 mmHg 82%
21:00 +17°C° 0 mm 2 m/s 749 mmHg 86%
22:00 +17°C° 0 mm 2 m/s 749 mmHg 86%
23:00 +16°C° 0 mm 2 m/s 750 mmHg 87%

20 Mai, Jeudi

Heure Température Précipitation Vent Pression Humidité
00:00 +16°C° 0 mm 2 m/s 750 mmHg 87%
01:00 +16°C° 0.2 mm 2 m/s 750 mmHg 89%
02:00 +16°C° 0.2 mm 1 m/s 750 mmHg 91%
03:00 +16°C° 0.2 mm 1 m/s 750 mmHg 92%
04:00 +16°C° 0.6 mm 1 m/s 750 mmHg 93%
05:00 +16°C° 0.6 mm 2 m/s 750 mmHg 93%
06:00 +16°C° 0.6 mm 2 m/s 750 mmHg 94%
07:00 +17°C° 1.4 mm 2 m/s 750 mmHg 92%
08:00 +18°C° 1.4 mm 2 m/s 750 mmHg 90%
09:00 +19°C° 1.4 mm 1 m/s 750 mmHg 89%
10:00 +20°C° 0.4 mm 3 m/s 750 mmHg 81%
11:00 +22°C° 0.4 mm 4 m/s 750 mmHg 74%
12:00 +25°C° 0.4 mm 5 m/s 749 mmHg 67%
13:00 +26°C° 0.5 mm 5 m/s 749 mmHg 64%
14:00 +27°C° 0.5 mm 6 m/s 749 mmHg 62%
15:00 +28°C° 0.5 mm 6 m/s 749 mmHg 60%
16:00 +27°C° 0.5 mm 5 m/s 749 mmHg 65%
17:00 +26°C° 0.5 mm 4 m/s 749 mmHg 70%
18:00 +25°C° 0.5 mm 2 m/s 749 mmHg 75%
19:00 +24°C° 0.1 mm 2 m/s 749 mmHg 76%
20:00 +23°C° 0.1 mm 2 m/s 749 mmHg 77%
21:00 +21°C° 0.1 mm 3 m/s 749 mmHg 78%
22:00 +21°C° 0 mm 3 m/s 749 mmHg 77%
23:00 +20°C° 0 mm 3 m/s 748 mmHg 75%
Voir plus

Nous avons besoin de votre consentement

Meteoprog et ses fournisseurs de services peuvent stocker et accéder à des données personnelles telles que des cookies, des identifiants d'appareils ou d'autres technologies similaires sur votre appareil et traiter ces données pour personnaliser le contenu et les publicités, ainsi que pour fournir des fonctionnalités de médias sociaux et analyser le trafic.

  • Stocker et/ou accéder à des informations sur votre appareil

    Des cookies, des identifiants d'appareils ou d'autres informations peuvent être stockés ou accessibles sur votre appareil aux fins indiquées ci-dessus.

  • Annonces et contenus personnalisés, mesure des annonces et des contenus, connaissance de l'audience et développement de produits

    Les annonces et le contenu peuvent être personnalisés en fonction d'un profil. D'autres données peuvent être ajoutées pour mieux personnaliser les annonces et le contenu. Les performances des publicités et du contenu peuvent être mesurées. Il est possible d'obtenir des informations sur le public qui a vu les publicités et le contenu. Ces données peuvent être utilisées pour développer ou améliorer l'expérience de l'utilisateur, les systèmes et les logiciels.

En cliquant sur "J'accepte", vous autorisez l'utilisation de cookies, des identifiants d'appareils, des balises web ou d'autres technologies similaires. Vos paramètres peuvent être modifiés dans le navigateur de votre appareil.

Dans certains cas, des intérêts légitimes peuvent être invoqués plutôt qu'un consentement. Vous pouvez en savoir plus à ce sujet dans notre Politique de confidentialité et de cookies.